Terug naar catalogus

BREEZE-M DEB

ActiefHEO
NORAD 38602·DEBRIS·🇷🇺 Russia

Gelanceerd Mar 14, 2008 vanaf Baikonur Cosmodrome

Loading…

Volgende Passages (komende 24 uur)

TLE

VersSource: Space-Track

Epoch: Sep 13, 2026, 20:43 UTC

1 38602U 08011AZ  26256.86366513  .00002279  00000-0  30511-2 0  9990
2 38602  48.7538  62.1153 6428028 163.9503 234.2636  3.32676455185237

Volg BREEZE-M DEB in realtime met AllMySat

Download on the App Store